Wind_Speed
7 7 8 8 8 7 7 7 6 6 6 5 6 6 6 6 8 8 9 10 10 9 10 10 10 10 10 10 9 8 7 6 6 5 5 5 4 4 5 5 5 6 7
8 8 8 8 7 7 6 5 5 5 5 5 5 5 5 5 6 7 8 9 9 9 9 9 10 10 10 10 9 8 7 7 6 6 5 5 4 5 5 5 6 6 8
9 9 9 9 8 7 6 5 5 4 4 3 3 3 3 4 5 6 6 8 8 9 9 9 9 9 9 9 9 8 7 7 7 6 5 5 5 5 5 5 5 7 8
10 10 9 9 8 7 6 5 4 4 3 2 2 2 2 3 4 5 5 7 8 8 9 9 9 9 9 9 8 7 7 6 6 6 5 5 6 6 5 6 6 7 9
11 11 10 10 9 9 8 6 5 4 2 1 1 0 1 2 3 4 5 6 7 7 8 8 9 9 9 9 8 7 6 6 6 6 5 6 6 5 6 6 6 7 9
12 12 12 11 11 11 10 9 7 7 5 4 4 3 3 3 4 5 5 6 6 7 8 8 8 9 9 9 8 7 6 6 6 6 6 6 6 6 6 7 7 7 8
12 13 13 13 12 12 12 11 9 9 8 7 6 6 5 5 5 6 5 6 7 7 8 8 8 9 9 9 8 7 6 6 6 6 6 6 6 7 6 6 7 7 8
13 13 13 14 14 13 13 12 11 10 9 8 7 7 7 6 6 6 6 6 7 7 7 7 8 8 9 8 8 8 7 7 6 6 6 6 6 7 7 7 6 7 8
12 13 13 14 14 14 14 13 12 11 11 10 9 8 8 7 7 6 6 6 6 6 6 6 7 7 8 8 8 8 7 6 6 7 7 6 6 6 7 7 7 7 8
12 13 13 13 14 14 14 13 13 12 11 11 10 9 8 7 7 6 6 5 5 5 5 5 6 6 7 7 8 8 7 7 7 7 7 7 8 8 8 8 8 8 9
12 12 12 13 14 14 14 14 13 13 12 11 11 10 9 8 7 6 6 5 4 4 4 4 4 5 5 6 6 7 7 7 7 7 8 8 9 9 9 9 9 10 10
11 12 12 13 13 13 13 13 13 13 12 11 11 10 9 9 7 7 6 5 4 3 3 3 3 4 4 4 5 6 7 7 7 7 8 9 10 11 11 10 10 11 11
10 10 11 11 12 12 13 13 13 13 12 11 11 10 9 9 8 7 6 5 4 3 3 2 2 3 4 4 5 5 6 6 7 7 8 9 10 11 12 12 12 12 13
8 9 9 10 11 12 12 13 13 12 12 11 11 10 9 8 8 7 6 5 4 3 2 2 1 1 2 3 4 5 6 7 8 8 9 10 11 12 13 14 15 15 15
7 8 8 8 9 10 11 11 11 11 11 11 10 10 9 8 7 8 6 5 4 3 2 1 1 0 1 2 3 4 6 7 8 9 9 11 12 13 13 15 16 17 18
5 6 6 7 7 8 9 9 10 10 10 10 10 10 9 9 8 8 8 6 5 4 3 2 2 2 2 3 4 5 6 7 8 9 10 11 12 14 15 16 17 17 18
4 4 4 5 6 6 7 8 8 9 9 9 9 9 9 9 8 8 7 6 5 5 4 3 3 4 4 5 5 6 7 8 9 10 11 12 13 15 16 17 18 19 19
1 2 3 4 4 5 6 7 7 8 8 7 7 8 8 8 8 7 7 7 6 5 5 5 5 5 6 7 8 8 9 10 11 12 13 13 14 16 17 18 19 20 20
1 1 1 2 3 4 5 6 6 6 7 7 7 7 7 7 7 7 8 7 7 7 7 7 7 8 9 9 10 11 12 13 13 14 15 16 17 17 19 20 21 22 23
3 2 2 2 2 3 4 5 5 6 6 7 7 7 7 7 7 8 9 9 9 9 10 10 9 10 11 12 12 14 15 16 17 18 19 20 20 21 22 23 24 25 25
4 4 3 3 3 4 4 5 6 6 7 7 7 7 7 8 9 10 10 11 11 12 12 12 13 13 14 14 15 17 18 18 19 20 21 23 24 24 25 26 26 27 28
6 5 5 5 5 5 6 7 7 8 8 8 9 8 9 10 11 12 12 13 13 14 14 15 15 15 16 17 18 20 21 21 22 23 24 25 26 27 28 28 29 29 30
8 8 7 7 7 7 8 8 9 9 10 10 10 10 11 12 13 14 14 15 15 16 16 17 18 19 19 19 20 21 22 23 25 25 26 27 28 29 30 31 31 32 33
10 10 10 9 9 9 10 10 10 11 12 12 12 12 13 14 15 16 16 17 18 18 19 20 21 21 21 22 22 23 24 25 26 27 28 28 29 30 32 33 34 35 36
12 12 12 11 11 11 11 12 13 13 14 14 15 15 16 17 18 18 19 20 20 21 22 23 24 24 24 24 24 25 26 27 28 29 30 30 31 32 33 34 36 37 38
14 14 14 14 14 14 14 14 15 16 16 17 17 18 19 19 20 21 21 22 23 24 25 26 26 26 27 27 28 28 28 29 30 31 31 32 33 34 34 36 38 39 40
Wind_Direction
355 354 352 347 339 330 321 312 303 295 287 278 274 266 252 246 236 231 224 222 222 222 221 220 218 214 212 210 212 213 216 218 214 210 201 201 198 200 201 204 200 189 190
5 3 360 357 353 344 335 327 318 308 295 286 282 268 250 236 233 225 216 213 211 210 210 210 209 208 207 208 210 210 211 213 209 204 202 203 198 197 204 200 195 192 185
19 16 12 9 2 355 352 347 338 328 312 301 295 276 245 236 230 220 213 207 204 203 202 201 199 198 199 202 203 205 205 209 207 204 203 199 192 188 185 186 178 179 177
28 25 22 20 15 11 7 2 357 345 330 320 310 269 234 222 208 206 200 196 197 198 195 194 191 189 192 194 194 195 197 202 202 202 202 197 185 179 172 171 173 174 175
35 34 34 30 27 24 22 20 21 23 22 34 41 78 159 180 173 174 179 181 186 189 188 190 188 185 186 190 190 191 192 193 195 197 201 192 176 170 167 170 161 162 169
41 43 41 38 37 37 37 38 41 46 52 64 77 87 105 120 148 157 166 169 172 178 183 186 182 182 183 186 188 191 193 193 190 195 196 190 181 174 163 165 162 160 164
46 47 47 46 46 46 46 48 51 52 57 66 75 80 93 104 118 130 143 154 160 167 173 175 177 180 183 186 190 191 191 191 187 191 191 187 179 172 171 160 164 166 163
49 49 51 51 52 51 51 53 55 56 60 67 74 81 89 99 104 112 124 139 146 152 160 167 174 181 188 190 191 190 188 190 191 193 195 188 180 179 182 178 177 179 180
53 52 54 54 54 54 54 56 59 61 64 69 75 81 87 94 98 105 116 127 134 138 146 156 166 176 185 191 193 195 197 197 202 204 207 206 197 196 198 194 196 197 196
55 55 57 57 55 56 56 58 59 62 65 69 74 78 84 90 94 100 108 121 133 143 149 153 162 173 183 189 195 201 205 210 214 216 216 215 213 214 215 213 210 211 210
55 56 58 59 57 57 57 58 59 60 63 68 71 74 78 81 85 91 101 112 124 143 157 163 171 179 187 194 201 207 213 216 223 226 226 226 225 224 223 226 224 222 222
54 57 58 59 59 58 58 58 58 58 61 65 68 71 72 73 75 80 87 94 100 116 143 164 171 187 199 205 209 214 220 225 231 234 236 236 236 233 233 236 236 234 231
53 57 58 58 59 59 58 59 59 59 59 62 65 67 70 68 66 71 75 73 76 88 106 140 163 193 208 218 224 225 230 235 238 240 242 241 244 243 240 242 242 242 239
57 58 56 58 59 60 60 60 60 58 59 62 64 65 66 63 58 58 62 65 69 73 80 93 108 181 218 231 233 239 242 245 249 252 252 250 251 253 250 249 246 246 246
59 61 58 59 59 59 59 58 57 58 59 61 62 61 60 58 55 51 53 60 62 62 59 63 54 236 228 254 258 256 254 255 255 256 257 256 257 257 256 254 252 250 250
57 58 55 57 57 56 53 51 53 54 55 55 56 55 54 52 50 46 45 48 46 40 28 12 336 298 284 277 284 280 269 264 263 264 265 263 261 260 258 259 258 256 256
57 57 52 52 51 51 48 45 46 46 47 48 47 47 46 45 43 40 35 32 29 20 6 354 314 299 284 283 288 290 279 274 271 269 271 270 268 266 265 264 262 260 260
58 53 45 44 44 42 38 36 36 34 35 35 34 32 31 30 28 24 20 15 9 2 353 340 321 306 296 291 290 290 283 280 276 274 276 275 274 273 271 268 266 264 264
246 336 10 28 29 26 22 17 15 15 15 14 14 14 14 11 9 5 2 357 352 347 341 332 321 309 298 293 292 291 288 282 280 279 279 279 278 277 275 273 270 268 266
243 268 294 323 341 351 357 358 358 354 351 352 355 356 357 356 351 347 346 343 339 334 330 325 318 310 301 294 291 291 288 283 281 279 279 279 279 279 278 277 273 270 268
251 260 272 290 304 316 324 330 337 337 333 333 334 334 335 334 332 332 332 330 328 327 326 321 314 309 302 296 292 291 288 285 282 280 280 280 280 279 278 276 274 272 269
255 262 268 280 290 297 303 311 319 322 321 321 320 318 318 319 321 321 320 319 318 318 320 320 315 311 306 300 295 293 289 288 285 283 282 282 281 279 278 276 275 273 271
254 259 266 276 286 294 299 302 307 312 314 313 312 310 310 311 312 313 314 315 314 314 314 315 314 311 309 304 299 296 293 291 289 286 285 284 282 280 279 277 276 275 274
253 257 263 271 279 286 293 298 301 308 308 308 308 309 308 309 310 312 312 312 311 310 310 310 310 309 306 303 300 297 295 293 291 290 287 285 282 282 281 280 279 278 277
254 259 263 269 276 282 288 293 297 300 305 305 306 306 307 308 308 308 309 309 309 308 308 308 309 309 305 303 300 298 297 295 294 292 290 288 285 283 282 282 281 279 278
256 260 264 269 274 280 285 290 294 297 299 302 303 303 304 304 305 305 305 306 306 306 306 306 307 307 306 304 302 299 298 297 296 294 291 290 289 286 285 285 284 282 280
Height
5869 5867 5865 5863 5861 5860 5859 5857 5856 5856 5856 5856 5855 5855 5856 5856 5856 5857 5858 5859 5861 5862 5864 5866 5867 5869 5870 5872 5874 5875 5876 5877 5877 5878 5879 5879 5879 5879 5879 5880 5879 5878 5877
5868 5866 5864 5862 5860 5858 5857 5856 5855 5854 5854 5854 5854 5854 5854 5854 5855 5855 5856 5857 5859 5861 5863 5864 5866 5868 5869 5871 5873 5874 5875 5876 5877 5878 5879 5879 5879 5879 5879 5879 5879 5879 5879
5867 5865 5863 5861 5859 5857 5856 5855 5854 5853 5853 5852 5852 5852 5852 5853 5853 5854 5855 5856 5858 5860 5861 5863 5865 5867 5868 5870 5872 5873 5874 5875 5876 5877 5878 5879 5879 5879 5879 5878 5879 5878 5879
5867 5865 5863 5861 5859 5857 5855 5854 5853 5852 5852 5851 5851 5851 5852 5852 5852 5853 5854 5855 5857 5859 5861 5862 5864 5866 5868 5869 5871 5872 5874 5875 5876 5877 5878 5878 5879 5879 5879 5879 5879 5879 5880
5868 5865 5863 5861 5859 5857 5855 5853 5852 5852 5851 5851 5851 5851 5851 5851 5852 5853 5854 5855 5856 5858 5860 5862 5863 5865 5867 5869 5870 5872 5873 5874 5875 5877 5878 5878 5879 5880 5880 5880 5880 5879 5881
5868 5866 5864 5861 5859 5857 5855 5854 5853 5852 5851 5851 5851 5851 5851 5851 5852 5853 5854 5855 5856 5858 5859 5861 5863 5865 5866 5868 5870 5871 5872 5874 5875 5876 5877 5878 5879 5880 5881 5881 5882 5882 5882
5869 5867 5865 5863 5861 5859 5857 5855 5854 5853 5853 5852 5852 5852 5852 5852 5853 5853 5854 5855 5856 5858 5859 5861 5862 5864 5866 5868 5869 5871 5872 5873 5874 5875 5876 5878 5878 5880 5881 5882 5883 5884 5885
5871 5869 5867 5865 5862 5860 5859 5857 5856 5855 5854 5854 5853 5853 5853 5854 5854 5855 5855 5856 5857 5858 5859 5861 5862 5864 5866 5867 5869 5870 5872 5873 5874 5875 5876 5877 5878 5879 5881 5882 5884 5885 5886
5872 5870 5868 5867 5865 5863 5861 5860 5859 5857 5856 5856 5855 5855 5855 5855 5856 5856 5857 5857 5858 5859 5860 5861 5862 5864 5865 5867 5868 5870 5871 5872 5873 5874 5876 5877 5878 5879 5881 5882 5884 5885 5886
5874 5872 5871 5869 5867 5866 5864 5862 5861 5860 5859 5858 5858 5857 5858 5857 5857 5858 5858 5858 5859 5860 5861 5861 5862 5863 5865 5866 5868 5869 5870 5871 5873 5874 5875 5876 5878 5879 5880 5881 5883 5884 5885
5876 5875 5873 5871 5870 5868 5866 5865 5864 5862 5861 5860 5860 5860 5859 5859 5859 5859 5859 5860 5860 5861 5861 5862 5862 5863 5865 5866 5867 5868 5869 5870 5871 5873 5874 5875 5876 5878 5879 5880 5881 5883 5884
5878 5877 5875 5873 5872 5871 5869 5867 5866 5865 5864 5863 5862 5862 5861 5861 5861 5860 5860 5860 5861 5861 5861 5862 5862 5863 5864 5865 5866 5867 5868 5869 5870 5871 5872 5873 5874 5876 5877 5878 5879 5881 5882
5880 5878 5877 5876 5874 5873 5871 5870 5868 5867 5866 5865 5864 5864 5863 5863 5862 5862 5862 5861 5861 5862 5862 5862 5862 5863 5864 5864 5865 5866 5867 5868 5869 5870 5871 5872 5872 5873 5875 5876 5877 5878 5879
5881 5880 5879 5878 5876 5875 5874 5872 5871 5870 5868 5867 5866 5866 5865 5864 5864 5863 5863 5863 5862 5862 5862 5862 5862 5863 5863 5864 5864 5864 5865 5866 5867 5868 5869 5869 5870 5871 5872 5873 5874 5875 5876
5882 5881 5880 5879 5878 5877 5876 5874 5873 5872 5870 5869 5868 5868 5867 5866 5865 5865 5864 5863 5863 5863 5863 5862 5862 5862 5863 5863 5863 5863 5863 5864 5865 5865 5866 5867 5867 5868 5868 5869 5870 5871 5872
5883 5882 5881 5880 5879 5878 5877 5876 5875 5874 5872 5871 5870 5869 5868 5867 5866 5866 5865 5864 5864 5863 5862 5862 5862 5861 5861 5861 5861 5861 5861 5862 5862 5863 5863 5864 5864 5864 5865 5865 5866 5867 5867
5883 5883 5882 5881 5880 5879 5878 5877 5876 5875 5873 5872 5871 5870 5869 5868 5867 5866 5865 5864 5864 5863 5862 5862 5861 5860 5860 5860 5860 5859 5859 5859 5859 5860 5860 5860 5861 5861 5861 5861 5861 5862 5862
5883 5883 5882 5881 5880 5879 5878 5877 5876 5875 5874 5873 5872 5871 5870 5869 5868 5867 5866 5864 5863 5862 5862 5861 5859 5859 5858 5858 5857 5857 5857 5857 5856 5856 5856 5856 5856 5856 5856 5856 5856 5857 5857
5883 5882 5882 5881 5880 5879 5878 5877 5876 5875 5874 5873 5872 5871 5869 5868 5867 5866 5865 5864 5863 5861 5860 5858 5857 5856 5855 5855 5854 5854 5854 5853 5853 5853 5852 5852 5852 5851 5851 5851 5851 5850 5851
5882 5881 5881 5880 5880 5879 5878 5877 5876 5874 5873 5872 5871 5870 5869 5868 5867 5865 5864 5863 5861 5860 5858 5856 5854 5853 5852 5851 5851 5850 5850 5849 5848 5848 5847 5847 5846 5846 5845 5845 5844 5844 5844
5880 5880 5880 5879 5879 5878 5877 5875 5874 5873 5872 5870 5869 5868 5867 5866 5865 5864 5863 5861 5859 5858 5855 5853 5851 5850 5848 5847 5846 5846 5845 5844 5843 5842 5841 5840 5839 5838 5837 5837 5836 5836 5836
5878 5878 5878 5877 5877 5876 5875 5874 5872 5871 5869 5868 5867 5866 5865 5864 5863 5862 5860 5858 5857 5855 5853 5851 5848 5846 5844 5842 5841 5840 5839 5838 5837 5836 5835 5833 5832 5830 5829 5829 5828 5827 5827
5876 5876 5876 5875 5874 5874 5872 5871 5870 5868 5866 5865 5864 5863 5862 5861 5860 5858 5857 5855 5853 5851 5849 5847 5845 5842 5840 5837 5835 5834 5832 5831 5829 5828 5827 5825 5823 5822 5820 5819 5819 5818 5817
5872 5872 5872 5872 5872 5871 5870 5869 5867 5866 5864 5862 5861 5860 5859 5858 5856 5855 5853 5851 5849 5847 5845 5843 5840 5837 5834 5831 5829 5827 5825 5823 5822 5820 5818 5817 5815 5813 5811 5810 5808 5807 5806
5869 5869 5869 5869 5868 5868 5867 5865 5864 5863 5861 5860 5858 5857 5855 5854 5852 5850 5849 5847 5844 5842 5839 5837 5834 5831 5828 5825 5822 5820 5818 5815 5814 5811 5809 5808 5806 5805 5803 5801 5798 5796 5795
5865 5865 5865 5865 5864 5864 5863 5862 5860 5859 5858 5856 5855 5853 5851 5849 5847 5845 5843 5841 5839 5836 5834 5831 5828 5825 5821 5818 5816 5813 5810 5808 5805 5803 5800 5798 5796 5794 5793 5792 5788 5786 5783